Time,TemperatureF,DewpointF,PressureIn,WindDirection,WindDirectionDegrees,WindSpeedMPH,WindSpeedGustMPH,Humidity,HourlyPrecipIn,Conditions,Clouds,dailyrainin,SoftwareType,DateUTC
2013-03-02 00:01:00,35.0,28.0,-100.00,SW,220,0.0,2.0,76,0.00,,,-99.99,,2013-03-02 05:01:00,
2013-03-02 00:12:00,35.0,28.0,-100.00,NNW,330,0.0,2.0,76,0.00,,,-99.99,,2013-03-02 05:12:00,
2013-03-02 00:22:00,34.0,28.0,-100.00,SW,225,0.0,1.0,77,0.00,,,-99.99,,2013-03-02 05:22:00,
2013-03-02 00:31:00,34.0,28.0,-100.00,North,10,0.0,1.0,78,0.00,,,-99.99,,2013-03-02 05:31:00,
2013-03-02 00:41:00,34.0,28.0,-100.00,North,0,0.0,2.0,78,0.00,,,-99.99,,2013-03-02 05:41:00,
2013-03-02 00:51:00,34.0,28.0,-100.00,North,10,0.0,2.0,79,0.00,,,-99.99,,2013-03-02 05:51:00,
2013-03-02 01:01:00,34.0,28.0,-100.00,ENE,70,0.0,1.0,79,0.00,,,-99.99,,2013-03-02 06:01:00,
2013-03-02 01:11:00,34.0,29.0,-100.00,NW,320,1.0,2.0,80,0.00,,,-99.99,,2013-03-02 06:11:00,
2013-03-02 01:21:00,34.0,29.0,-100.00,SE,140,0.0,1.0,80,0.00,,,-99.99,,2013-03-02 06:21:00,
2013-03-02 01:31:00,34.0,29.0,-100.00,NNW,340,0.0,3.0,80,0.00,,,-99.99,,2013-03-02 06:31:00,
2013-03-02 01:41:00,34.0,29.0,-100.00,WSW,255,0.0,1.0,81,0.00,,,-99.99,,2013-03-02 06:41:00,
2013-03-02 01:51:00,33.0,29.0,-100.00,West,270,0.0,0.0,81,0.00,,,-99.99,,2013-03-02 06:51:00,
2013-03-02 02:01:00,33.0,29.0,-100.00,WNW,300,0.0,1.0,81,0.00,,,-99.99,,2013-03-02 07:01:00,
2013-03-02 02:11:00,33.0,28.0,-100.00,East,95,0.0,1.0,82,0.00,,,-99.99,,2013-03-02 07:11:00,
2013-03-02 02:21:00,33.0,29.0,-100.00,NNE,30,1.0,2.0,82,0.00,,,-99.99,,2013-03-02 07:21:00,
2013-03-02 02:32:00,33.0,29.0,-100.00,SW,230,0.0,1.0,83,0.00,,,-99.99,,2013-03-02 07:32:00,
2013-03-02 02:41:00,33.0,29.0,-100.00,SW,220,0.0,1.0,83,0.00,,,-99.99,,2013-03-02 07:41:00,
2013-03-02 02:51:00,33.0,29.0,-100.00,NW,325,1.0,4.0,83,0.00,,,-99.99,,2013-03-02 07:51:00,
2013-03-02 03:01:00,33.0,29.0,-100.00,North,0,2.0,2.0,83,0.00,,,-99.99,,2013-03-02 08:01:00,
2013-03-02 03:11:00,32.0,28.0,-100.00,ENE,65,0.0,4.0,84,0.00,,,-99.99,,2013-03-02 08:11:00,
2013-03-02 03:21:00,31.0,27.0,-100.00,ENE,60,0.0,0.0,84,0.00,,,-99.99,,2013-03-02 08:21:00,
2013-03-02 03:31:00,31.0,27.0,-100.00,NNW,345,1.0,1.0,85,0.00,,,-99.99,,2013-03-02 08:31:00,
2013-03-02 03:42:00,31.0,27.0,-100.00,NNW,345,0.0,1.0,85,0.00,,,-99.99,,2013-03-02 08:42:00,
2013-03-02 03:52:00,30.0,26.0,-100.00,North,355,0.0,1.0,86,0.00,,,-99.99,,2013-03-02 08:52:00,
2013-03-02 04:01:00,29.0,26.0,-100.00,East,100,0.0,0.0,87,0.00,,,-99.99,,2013-03-02 09:01:00,
2013-03-02 04:11:00,30.0,27.0,-100.00,SW,220,1.0,3.0,87,0.00,,,-99.99,,2013-03-02 09:11:00,
2013-03-02 04:21:00,29.0,26.0,-100.00,NNE,20,0.0,4.0,88,0.00,,,-99.99,,2013-03-02 09:21:00,
2013-03-02 04:31:00,29.0,26.0,-100.00,North,350,0.0,1.0,89,0.00,,,-99.99,,2013-03-02 09:31:00,
2013-03-02 04:42:00,28.0,26.0,-100.00,North,5,0.0,0.0,89,0.00,,,-99.99,,2013-03-02 09:42:00,
2013-03-02 04:51:00,28.0,25.0,-100.00,NNE,15,0.0,1.0,89,0.00,,,-99.99,,2013-03-02 09:51:00,
2013-03-02 05:01:00,28.0,25.0,-100.00,NE,40,0.0,2.0,90,0.00,,,-99.99,,2013-03-02 10:01:00,
2013-03-02 05:14:00,28.0,25.0,-100.00,East,80,0.0,2.0,91,0.00,,,-99.99,,2013-03-02 10:14:00,
2013-03-02 05:21:00,27.0,25.0,-100.00,SSE,155,1.0,1.0,91,0.00,,,-99.99,,2013-03-02 10:21:00,
2013-03-02 05:31:00,27.0,25.0,-100.00,SE,135,0.0,0.0,91,0.00,,,-99.99,,2013-03-02 10:31:00,
2013-03-02 05:42:00,26.0,24.0,-100.00,NNW,345,0.0,1.0,91,0.00,,,-99.99,,2013-03-02 10:42:00,
2013-03-02 05:51:00,26.0,24.0,-100.00,NNE,25,0.0,1.0,92,0.00,,,-99.99,,2013-03-02 10:51:00,
2013-03-02 06:01:00,26.0,24.0,-100.00,NE,40,0.0,1.0,92,0.00,,,-99.99,,2013-03-02 11:01:00,
2013-03-02 06:11:00,26.0,24.0,-100.00,NNE,15,1.0,1.0,92,0.00,,,-99.99,,2013-03-02 11:11:00,
2013-03-02 06:21:00,26.0,24.0,-100.00,NNE,15,0.0,1.0,92,0.00,,,-99.99,,2013-03-02 11:21:00,
2013-03-02 06:31:00,26.0,24.0,-100.00,NNE,15,1.0,1.0,93,0.00,,,-99.99,,2013-03-02 11:31:00,
2013-03-02 06:41:00,26.0,24.0,-100.00,NNE,15,0.0,0.0,93,0.00,,,-99.99,,2013-03-02 11:41:00,
2013-03-02 06:52:00,25.0,24.0,-100.00,NNE,15,0.0,0.0,94,0.00,,,-99.99,,2013-03-02 11:52:00,
2013-03-02 07:02:00,25.0,24.0,-100.00,North,350,0.0,1.0,94,0.00,,,-99.99,,2013-03-02 12:02:00,
2013-03-02 07:11:00,25.0,24.0,-100.00,NNW,345,0.0,1.0,94,0.00,,,-99.99,,2013-03-02 12:11:00,
2013-03-02 07:21:00,26.0,24.0,-100.00,South,190,0.0,2.0,94,0.00,,,-99.99,,2013-03-02 12:21:00,
2013-03-02 07:32:00,25.0,24.0,-100.00,NNE,20,0.0,1.0,94,0.00,,,-99.99,,2013-03-02 12:32:00,
2013-03-02 07:43:00,25.0,24.0,-100.00,NE,55,0.0,1.0,94,0.00,,,-99.99,,2013-03-02 12:43:00,
2013-03-02 07:53:00,25.0,24.0,-100.00,SE,130,0.0,0.0,94,0.00,,,-99.99,,2013-03-02 12:53:00,
2013-03-02 08:01:00,25.0,24.0,-100.00,NNW,345,0.0,4.0,95,0.00,,,-99.99,,2013-03-02 13:01:00,
2013-03-02 08:11:00,25.0,24.0,-100.00,NNE,20,0.0,3.0,95,0.00,,,-99.99,,2013-03-02 13:11:00,
2013-03-02 08:21:00,25.0,24.0,-100.00,WSW,245,0.0,2.0,95,0.00,,,-99.99,,2013-03-02 13:21:00,
2013-03-02 08:31:00,24.0,23.0,-100.00,NNW,330,0.0,1.0,95,0.00,,,-99.99,,2013-03-02 13:31:00,
2013-03-02 08:41:00,24.0,23.0,-100.00,SE,130,0.0,1.0,95,0.00,,,-99.99,,2013-03-02 13:41:00,
2013-03-02 08:52:00,24.0,23.0,-100.00,NNW,330,0.0,2.0,96,0.00,,,-99.99,,2013-03-02 13:52:00,
2013-03-02 09:01:00,24.0,23.0,-100.00,ENE,65,0.0,4.0,96,0.00,,,-99.99,,2013-03-02 14:01:00,
2013-03-02 09:11:00,24.0,23.0,-100.00,NNW,345,0.0,2.0,96,0.00,,,-99.99,,2013-03-02 14:11:00,
2013-03-02 09:21:00,24.0,23.0,-100.00,SE,125,0.0,1.0,96,0.00,,,-99.99,,2013-03-02 14:21:00,
2013-03-02 09:31:00,24.0,23.0,-100.00,NW,305,0.0,2.0,96,0.00,,,-99.99,,2013-03-02 14:31:00,
2013-03-02 09:42:00,24.0,23.0,-100.00,South,175,0.0,1.0,96,0.00,,,-99.99,,2013-03-02 14:42:00,
2013-03-02 09:52:00,24.0,23.0,-100.00,SE,125,0.0,0.0,96,0.00,,,-99.99,,2013-03-02 14:52:00,
2013-03-02 10:01:00,25.0,24.0,-100.00,NW,320,0.0,2.0,96,0.00,,,-99.99,,2013-03-02 15:01:00,
2013-03-02 10:11:00,26.0,26.0,-100.00,NNW,330,0.0,4.0,96,0.00,,,-99.99,,2013-03-02 15:11:00,
2013-03-02 10:21:00,27.0,26.0,-100.00,SSW,195,0.0,3.0,96,0.00,,,-99.99,,2013-03-02 15:21:00,
2013-03-02 10:31:00,29.0,28.0,-100.00,SSE,165,1.0,4.0,96,0.00,,,-99.99,,2013-03-02 15:31:00,
2013-03-02 10:41:00,30.0,29.0,-100.00,SSE,150,1.0,2.0,96,0.00,,,-99.99,,2013-03-02 15:41:00,
2013-03-02 10:51:00,31.0,29.0,-100.00,SSE,155,1.0,2.0,94,0.00,,,-99.99,,2013-03-02 15:51:00,
2013-03-02 11:01:00,31.0,29.0,-100.00,SE,145,1.0,2.0,91,0.00,,,-99.99,,2013-03-02 16:01:00,
2013-03-02 11:11:00,33.0,29.0,-100.00,SSE,160,1.0,2.0,83,0.00,,,-99.99,,2013-03-02 16:11:00,
2013-03-02 11:21:00,33.0,27.0,-100.00,SSE,150,1.0,1.0,77,0.00,,,-99.99,,2013-03-02 16:21:00,
2013-03-02 11:31:00,36.0,28.0,-100.00,SE,140,1.0,1.0,70,0.00,,,-99.99,,2013-03-02 16:31:00,
2013-03-02 11:41:00,37.0,26.0,-100.00,SSE,160,1.0,2.0,64,0.00,,,-99.99,,2013-03-02 16:41:00,
2013-03-02 11:51:00,37.0,25.0,-100.00,South,175,2.0,2.0,61,0.00,,,-99.99,,2013-03-02 16:51:00,
2013-03-02 12:01:00,38.0,25.0,-100.00,South,175,1.0,2.0,58,0.00,,,-99.99,,2013-03-02 17:01:00,
2013-03-02 12:11:00,39.0,25.0,-100.00,South,175,1.0,3.0,55,0.00,,,-99.99,,2013-03-02 17:11:00,
2013-03-02 12:21:00,41.0,25.0,-100.00,SSE,160,1.0,2.0,52,0.00,,,-99.99,,2013-03-02 17:21:00,
2013-03-02 12:31:00,42.0,24.0,-100.00,South,170,1.0,3.0,49,0.00,,,-99.99,,2013-03-02 17:31:00,
2013-03-02 12:41:00,42.0,24.0,-100.00,South,180,1.0,2.0,47,0.00,,,-99.99,,2013-03-02 17:41:00,
2013-03-02 12:52:00,43.0,23.0,-100.00,SSE,160,2.0,4.0,45,0.00,,,-99.99,,2013-03-02 17:52:00,
2013-03-02 13:01:00,43.0,23.0,-100.00,SSE,160,3.0,5.0,43,0.00,,,-99.99,,2013-03-02 18:01:00,
2013-03-02 13:11:00,43.0,22.0,-100.00,ESE,120,4.0,8.0,41,0.00,,,-99.99,,2013-03-02 18:11:00,
2013-03-02 13:21:00,44.0,22.0,-100.00,SSE,150,2.0,6.0,41,0.00,,,-99.99,,2013-03-02 18:21:00,
2013-03-02 13:31:00,46.0,23.0,-100.00,SSE,155,2.0,5.0,40,0.00,,,-99.99,,2013-03-02 18:31:00,
2013-03-02 13:41:00,47.0,22.0,-100.00,SSE,160,2.0,6.0,38,0.00,,,-99.99,,2013-03-02 18:41:00,
2013-03-02 13:51:00,47.0,23.0,-100.00,SSE,155,2.0,4.0,37,0.00,,,-99.99,,2013-03-02 18:51:00,
2013-03-02 14:01:00,48.0,23.0,-100.00,SE,145,2.0,5.0,36,0.00,,,-99.99,,2013-03-02 19:01:00,
2013-03-02 14:11:00,49.0,22.0,-100.00,SSE,155,2.0,5.0,34,0.00,,,-99.99,,2013-03-02 19:11:00,
2013-03-02 14:21:00,50.0,22.0,-100.00,SSW,195,4.0,9.0,33,0.00,,,-99.99,,2013-03-02 19:21:00,
2013-03-02 14:31:00,51.0,23.0,-100.00,South,190,4.0,6.0,32,0.00,,,-99.99,,2013-03-02 19:31:00,
2013-03-02 14:42:00,51.0,22.0,-100.00,SSE,155,4.0,7.0,32,0.00,,,-99.99,,2013-03-02 19:42:00,
2013-03-02 14:52:00,51.0,23.0,-100.00,SE,145,3.0,9.0,32,0.00,,,-99.99,,2013-03-02 19:52:00,
2013-03-02 15:01:00,51.0,22.0,-100.00,SSE,165,0.0,5.0,31,0.00,,,-99.99,,2013-03-02 20:01:00,
2013-03-02 15:11:00,52.0,23.0,-100.00,SSE,155,0.0,0.0,31,0.00,,,-99.99,,2013-03-02 20:11:00,
2013-03-02 15:21:00,52.0,22.0,-100.00,SSE,160,0.0,0.0,31,0.00,,,-99.99,,2013-03-02 20:21:00,
2013-03-02 15:31:00,52.0,22.0,-100.00,SSE,165,0.0,0.0,30,0.00,,,-99.99,,2013-03-02 20:31:00,
2013-03-02 15:41:00,53.0,22.0,-100.00,South,170,0.0,0.0,29,0.00,,,-99.99,,2013-03-02 20:41:00,
2013-03-02 15:52:00,53.0,22.0,-100.00,SSE,150,0.0,0.0,29,0.00,,,-99.99,,2013-03-02 20:52:00,
2013-03-02 16:02:00,53.0,23.0,-100.00,SSE,165,0.0,0.0,29,0.00,,,-99.99,,2013-03-02 21:02:00,
2013-03-02 16:11:00,53.0,22.0,-100.00,SSE,155,0.0,0.0,28,0.00,,,-99.99,,2013-03-02 21:11:00,
2013-03-02 16:21:00,53.0,21.0,-100.00,SE,140,0.0,0.0,29,0.00,,,-99.99,,2013-03-02 21:21:00,
2013-03-02 16:31:00,53.0,21.0,-100.00,South,170,0.0,0.0,28,0.00,,,-99.99,,2013-03-02 21:31:00,
2013-03-02 16:41:00,54.0,21.0,-100.00,SE,140,0.0,0.0,27,0.00,,,-99.99,,2013-03-02 21:41:00,
2013-03-02 16:52:00,54.0,21.0,-100.00,SE,135,0.0,0.0,27,0.00,,,-99.99,,2013-03-02 21:52:00,
2013-03-02 17:01:00,55.0,21.0,-100.00,South,190,0.0,0.0,26,0.00,,,-99.99,,2013-03-02 22:01:00,
2013-03-02 17:11:00,55.0,20.0,-100.00,SSE,160,0.0,0.0,25,0.00,,,-99.99,,2013-03-02 22:11:00,
2013-03-02 17:21:00,55.0,20.0,-100.00,South,185,0.0,0.0,25,0.00,,,-99.99,,2013-03-02 22:21:00,
2013-03-02 17:31:00,52.0,19.0,-100.00,South,170,0.0,0.0,26,0.00,,,-99.99,,2013-03-02 22:31:00,
2013-03-02 17:42:00,52.0,19.0,-100.00,South,185,0.0,0.0,27,0.00,,,-99.99,,2013-03-02 22:42:00,
2013-03-02 17:51:00,51.0,19.0,-100.00,WSW,240,2.0,5.0,28,0.00,,,-99.99,,2013-03-02 22:51:00,
2013-03-02 18:01:00,51.0,19.0,-100.00,South,185,1.0,6.0,28,0.00,,,-99.99,,2013-03-02 23:01:00,
2013-03-02 18:11:00,50.0,19.0,-100.00,SE,140,2.0,6.0,29,0.00,,,-99.99,,2013-03-02 23:11:00,
2013-03-02 18:21:00,50.0,19.0,-100.00,SW,215,2.0,6.0,29,0.00,,,-99.99,,2013-03-02 23:21:00,
2013-03-02 18:31:00,50.0,19.0,-100.00,South,190,2.0,5.0,29,0.00,,,-99.99,,2013-03-02 23:31:00,
2013-03-02 18:41:00,48.0,19.0,-100.00,SSW,210,0.0,6.0,30,0.00,,,-99.99,,2013-03-02 23:41:00,
2013-03-02 18:52:00,49.0,19.0,-100.00,SW,225,4.0,7.0,30,0.00,,,-99.99,,2013-03-02 23:52:00,
2013-03-02 19:02:00,49.0,19.0,-100.00,SW,230,1.0,7.0,30,0.00,,,-99.99,,2013-03-03 00:02:00,
2013-03-02 19:11:00,48.0,20.0,-100.00,SSW,205,1.0,4.0,31,0.00,,,-99.99,,2013-03-03 00:11:00,
2013-03-02 19:22:00,48.0,20.0,-100.00,SW,230,1.0,4.0,32,0.00,,,-99.99,,2013-03-03 00:22:00,
2013-03-02 19:31:00,48.0,20.0,-100.00,NW,310,1.0,4.0,32,0.00,,,-99.99,,2013-03-03 00:31:00,
2013-03-02 19:42:00,47.0,20.0,-100.00,NW,305,0.0,3.0,33,0.00,,,-99.99,,2013-03-03 00:42:00,
2013-03-02 19:52:00,45.0,20.0,-100.00,ENE,75,0.0,1.0,36,0.00,,,-99.99,,2013-03-03 00:52:00,
2013-03-02 20:01:00,45.0,20.0,-100.00,NE,35,1.0,3.0,37,0.00,,,-99.99,,2013-03-03 01:01:00,
2013-03-02 20:11:00,45.0,21.0,-100.00,NE,35,4.0,6.0,39,0.00,,,-99.99,,2013-03-03 01:11:00,
2013-03-02 20:21:00,44.0,22.0,-100.00,North,0,2.0,6.0,40,0.00,,,-99.99,,2013-03-03 01:21:00,
2013-03-02 20:31:00,44.0,22.0,-100.00,North,0,3.0,4.0,41,0.00,,,-99.99,,2013-03-03 01:31:00,
2013-03-02 20:41:00,43.0,22.0,-100.00,East,85,1.0,4.0,42,0.00,,,-99.99,,2013-03-03 01:41:00,
2013-03-02 20:51:00,42.0,22.0,-100.00,SSW,205,0.0,5.0,44,0.00,,,-99.99,,2013-03-03 01:51:00,
2013-03-02 21:01:00,41.0,22.0,-100.00,SSW,205,1.0,4.0,46,0.00,,,-99.99,,2013-03-03 02:01:00,
2013-03-02 21:11:00,40.0,22.0,-100.00,North,10,1.0,4.0,48,0.00,,,-99.99,,2013-03-03 02:11:00,
2013-03-02 21:21:00,40.0,24.0,-100.00,NW,320,1.0,2.0,50,0.00,,,-99.99,,2013-03-03 02:21:00,
2013-03-02 21:31:00,39.0,23.0,-100.00,NNW,340,0.0,4.0,52,0.00,,,-99.99,,2013-03-03 02:31:00,
2013-03-02 21:41:00,39.0,24.0,-100.00,NW,305,0.0,3.0,53,0.00,,,-99.99,,2013-03-03 02:41:00,
2013-03-02 21:52:00,38.0,24.0,-100.00,North,0,1.0,4.0,55,0.00,,,-99.99,,2013-03-03 02:52:00,
2013-03-02 22:01:00,38.0,24.0,-100.00,NE,55,0.0,1.0,56,0.00,,,-99.99,,2013-03-03 03:01:00,
2013-03-02 22:11:00,37.0,25.0,-100.00,NE,35,0.0,4.0,59,0.00,,,-99.99,,2013-03-03 03:11:00,
2013-03-02 22:21:00,37.0,25.0,-100.00,NNW,330,1.0,4.0,61,0.00,,,-99.99,,2013-03-03 03:21:00,
2013-03-02 22:31:00,36.0,24.0,-100.00,South,190,0.0,3.0,62,0.00,,,-99.99,,2013-03-03 03:31:00,
2013-03-02 22:41:00,35.0,24.0,-100.00,NNW,335,0.0,2.0,63,0.00,,,-99.99,,2013-03-03 03:41:00,
2013-03-02 22:51:00,35.0,25.0,-100.00,North,350,0.0,2.0,66,0.00,,,-99.99,,2013-03-03 03:51:00,
2013-03-02 23:01:00,34.0,25.0,-100.00,NW,325,0.0,2.0,67,0.00,,,-99.99,,2013-03-03 04:01:00,
2013-03-02 23:11:00,33.0,25.0,-100.00,NE,55,1.0,1.0,70,0.00,,,-99.99,,2013-03-03 04:11:00,
2013-03-02 23:21:00,34.0,26.0,-100.00,NNW,335,0.0,2.0,72,0.00,,,-99.99,,2013-03-03 04:21:00,
2013-03-02 23:31:00,33.0,26.0,-100.00,North,0,0.0,1.0,72,0.00,,,-99.99,,2013-03-03 04:31:00,
2013-03-02 23:41:00,32.0,25.0,-100.00,NNW,335,0.0,1.0,74,0.00,,,-99.99,,2013-03-03 04:41:00,
2013-03-02 23:51:00,32.0,25.0,-100.00,North,5,0.0,1.0,76,0.00,,,-99.99,,2013-03-03 04:51:00,